星链-3515 (STARLINK-3515 )

导读 | 星芒AI

STARLINK-3515 是 SpaceX Starlink 项目中的一颗低轨通信卫星,属于第三代星链卫星(v1.5 或 v2 版本)。它于 2023 年通过猎鹰 9 号火箭发射升空,旨在增强全球互联网覆盖,提供低延迟、高速度的宽带服务。该卫星采用先进推进系统和激光通信技术,支持星间链路,提升网络效率与稳定性。作为 Starlink 卫星群的一部分,STARLINK-3515 服务于偏远和网络基础设施薄弱地区,助力实现全球互联网接入目标。

基本信息
目录编号:
51738
目录名称:
STARLINK-3515
国际标识:
2022-016AA
轨道中心:
EARTH
卫星名称:
星链-3515
卫星全名:
星链-3515 (STARLINK-3515 )
卫星状态:
在轨 (已飞行1398 天)
发射日期:
2022-02-21 UTC
国别 :
美国 (US)
星等 :
--
轨道信息
数据来源 国际轨道数据
星历时间: 2025-12-20T11:35:02+0800
8小时前
查看轨道信息
半长轴: 6917.905km
偏心率: 0.0001478
轨道倾角: 53.219°
近地点辐角 101.959°
升交点赤经 316.190°
平近点角 258.157°
近地点: 538.745km
远地点: 540.791km
周期: 95.438分钟
每日圈数: 15.088322
详细信息
固有亮度:
5
最大亮度:
2.5
卫星平台:
Starlink v1.5
覆盖范围:
全球
运营商:
太空探索技术公司
运营商所在国:
美国
制造商(研发单位):
太空探索技术公司
制造商所在国:
美国
使用方式:
暂无
卫星简介
星链(Starlink)计划是由太空探索技术公司(SpaceX)提出的一个巨型低轨卫星互联网星座项目,计划在2019年至2024年间在太空搭建由约1.2万颗卫星组成的“星链”网络,其中1584颗将部署在地球上空550千米处的近地轨道,并从2020年开始工作。该卫星仍在工作。
2D轨道图
3D轨道图
轨道高度分析图
轨道倾角分析图
轨道综合分析图
查看轨道综合分析图